Location: Bright Skies Observatory
(38.9689°N, 77.0681°W)
Time: 14:52:48
(UTC-05:00)

Daily predictions for brighter satellites

Satellite Brightness Start Highest point End
(mag) Time Altitude Azimuth Time Altitude Azimuth Time Altitude Azimuth
Okean 1-7 Rocket 4.0 18:20:47 10° N 18:25:03 40° ENE 18:29:13 10° SSE
Cosmos 1484 Rocket 4.1 18:26:22 10° S 18:30:09 46° W 18:33:54 10° NNW
Cosmos 2322 4.1 18:25:57 10° NNW 18:31:39 70° WSW 18:37:17 10° SSE
Cosmos 1300 Rocket 3.7 18:27:40 10° S 18:32:05 81° W 18:36:34 10° N
Cosmos 2285 Rocket 4.4 18:27:43 10° N 18:33:51 44° ENE 18:39:55 10° SE
Cosmos 1238 Rocket 2.4 18:33:02 10° N 18:36:00 73° W 18:39:10 10° S
Hubble Space Telescope 2.8 18:38:18 10° SW 18:41:12 18° S 18:44:05 10° SE
Cosmos 1455 Rocket 4.4 18:39:17 10° SE 18:42:16 18° E 18:45:15 10° NE
Cosmos 2237 Rocket 3.2 18:38:12 10° N 18:42:56 26° ENE 18:47:38 10° ESE
Cosmos 2297 Rocket 3.3 18:39:21 10° SSE 18:43:31 21° E 18:47:41 10° NE
OAO 3 Rocket 4.4 18:42:30 10° SW 18:46:48 30° SSE 18:50:29 13° ESE
Cosmos 1741 Rocket 4.4 18:41:57 10° SSW 18:47:08 69° WNW 18:52:21 10° NNE
Cosmos 405 Rocket 3.7 18:44:18 10° NNE 18:47:49 28° ENE 18:51:14 10° SE
Cosmos 2333 4.2 18:43:03 10° NNW 18:48:48 74° ENE 18:54:34 10° SSE
ALOS 2.5 18:45:25 10° SE 18:49:51 46° ENE 18:54:19 10° N
COSMO-SKYMED 1 4.1 18:45:58 10° N 18:50:01 40° WNW 18:54:04 10° SW
H-2A R/B 3.7 18:49:13 10° SE 18:52:21 26° ENE 18:55:34 10° NNE
Cosmos 2219 Rocket 2.4 18:46:57 10° NNW 18:52:24 50° ENE 18:57:50 10° SE
COSMOS 2428 2.7 18:47:05 10° NNW 18:52:48 89° WSW 18:58:29 10° SSE
Cosmos 2360 Rocket 3.8 18:48:33 10° NW 18:53:45 39° WSW 18:58:57 10° S
CZ-2D R/B 4.4 18:54:44 14° ESE 18:57:06 23° ENE 19:00:08 10° NNE
SJ-6B 2.7 18:54:48 10° SSE 18:58:45 84° ENE 19:02:39 10° N
Meteor 2-4 Rocket 3.7 18:54:50 10° NNW 19:00:19 81° W 19:05:40 10° S
USA 229 DEB 3.8 18:54:20 10° NNW 19:01:31 82° ENE 19:08:48 10° SE
USA 229 3.8 18:54:26 10° NNW 19:01:37 82° ENE 19:08:54 10° SE
Cosmos 2227 Rocket 2.5 18:58:48 10° S 19:04:06 44° ESE 19:09:27 10° NE
Cosmos 2219 4.0 18:59:27 10° SW 19:05:05 56° WNW 19:10:45 10° NNE
BREEZE-M DEB (TANK) 3.8 19:05:29 10° NW 19:08:44 55° NE 19:15:07 17° ESE
Resurs 01 Rocket 1.7 19:04:50 10° SSE 19:09:06 53° ENE 19:13:23 10° N
Cosmos 468 Rocket 4.1 19:04:31 10° N 19:09:43 57° ENE 19:14:54 10° SSE
Meteor 1-23 Rocket 4.4 19:05:40 10° NNW 19:11:29 81° W 19:17:11 10° S
Cosmos 1610 Rocket 4.4 19:06:08 10° S 19:12:15 64° E 19:18:20 10° NNE
Cosmos 1441 Rocket 4.3 19:10:49 10° NNE 19:14:09 25° ENE 19:14:09 25° ENE
Resurs 1-3 3.7 19:10:28 10° SSE 19:14:42 50° ENE 19:18:57 10° N
Spot 2 Rocket 3.5 19:10:31 10° SSE 19:15:29 61° ENE 19:20:30 10° N
Cosmos 1025 Rocket 3.3 19:11:21 10° NNW 19:15:45 71° W 19:20:06 10° S
FREGAT/IRIS 4.3 19:17:18 10° SSW 19:20:11 37° W 19:23:06 10° NNW
SL-16 R/B 3.3 19:15:47 10° N 19:20:14 23° NE 19:21:06 22° ENE
Cosmos 1892 Rocket 3.4 19:17:17 10° N 19:21:38 66° E 19:26:00 10° SSE
GEOS 3 Rocket 3.9 19:20:20 15° NE 19:24:33 48° ESE 19:29:38 10° SSW
Atlas Centaur 2 3.7 19:21:06 10° SW 19:27:34 29° SSE 19:30:22 22° SE
GPS 2-04 Rocket1 3.3 19:23:56 10° W 19:28:03 51° S 19:29:35 33° SE
Meteor 2-13 Rocket 4.4 19:23:34 10° S 19:29:38 86° E 19:35:46 10° N
NOSS 3-1 (C) 4.1 19:23:24 10° NNW 19:30:57 62° NE 19:36:32 22° SE
Abrixas rocket 4.3 19:28:45 10° WNW 19:31:22 20° NNW 19:32:36 17° NNE
OTV 4 0.4 19:28:50 10° WSW 19:31:45 67° S 19:31:45 67° S
Envisat 3.9 19:32:27 29° ENE 19:32:27 29° ENE 19:36:33 10° N
FENGYUN 3A 3.9 19:27:08 10° S 19:32:31 71° WSW 19:37:57 10° NNW
Cosmos 1814 Rocket 3.8 19:27:57 10° NNW 19:33:05 69° ENE 19:36:39 20° SSE
Okean 2 3.8 19:29:18 10° NNW 19:33:27 64° W 19:37:34 10° S
Cosmos 1544 Rocket 3.7 19:38:12 10° SSW 19:42:30 72° W 19:46:50 10° N
Cosmos 1980 3.6 19:37:20 10° NNW 19:43:02 84° ENE 19:46:48 22° SSE
NOSS 0 Rocket 4.0 19:37:55 10° NNW 19:44:04 78° WSW 19:50:08 10° SSE
Cosmos 2333 Rocket 2.4 19:40:43 10° NNW 19:46:28 73° WSW 19:51:57 11° SSE
Helios 1B rocket 2.3 19:43:04 10° NNE 19:47:14 73° ESE 19:51:21 10° S
USA 32 4.0 19:44:34 10° N 19:49:44 59° E 19:51:05 44° SE
Cosmos 1354 Rocket 4.5 19:46:43 10° S 19:50:30 40° SE 19:50:30 40° SE
Helios 1A 2.8 19:52:56 64° SSE 19:53:34 86° ENE 19:57:44 10° NNW
Cosmos 1975 2.9 19:51:07 10° SSW 19:55:08 76° W 19:59:13 10° N
Cosmos 1437 3.7 19:53:37 10° NNW 19:56:48 46° W 19:56:58 45° WSW
Cosmos 1500 3.3 19:53:34 10° SSW 19:57:21 72° W 20:01:08 10° N
Nadezhda 3 Rocket 4.1 19:56:41 10° N 20:02:51 76° W 20:09:03 10° S
Cosmos 1626 Rocket 4.3 19:59:06 10° N 20:02:07 40° NNE 20:02:07 40° NNE
Cosmos 1486 Rocket 4.4 19:58:55 10° SSW 20:04:12 65° WNW 20:09:29 10° NNE
CZ-3 Stage 3 4.3 19:28:23 10° SW 20:04:15 40° S 20:07:53 32° SE
Cosmos 1515 4.4 20:01:11 10° NNW 20:04:56 52° W 20:05:39 45° SW
Cosmos 2082 4.1 20:02:20 10° SW 20:08:00 62° WNW 20:13:41 10° NNE
Cosmos 841 Rocket 3.3 20:05:21 10° NNW 20:10:31 86° ENE 20:10:38 84° ESE
ATLAS CENTAUR R/B 3.8 20:11:37 10° WSW 20:13:24 19° WNW 20:13:24 19° WNW
Cosmos 2341 Rocket 4.2 20:10:13 10° SSW 20:16:34 72° W 20:22:58 10° N
Cosmos 1763 Rocket 3.8 20:14:09 10° NNW 20:19:15 63° WSW 20:20:13 53° SSW
Hubble Space Telescope 3.3 20:19:09 10° SW 20:20:16 14° SW 20:20:16 14° SW
SL-24 R/B - RUBIN 2 4.5 20:15:29 10° SSW 20:21:32 68° SE 20:21:32 68° SE
Cosmos 2297 Rocket 3.0 20:21:40 10° SW 20:27:08 49° WNW 20:32:38 10° NNE
Cosmos 2237 Rocket 3.2 20:21:46 10° NW 20:27:10 44° WSW 20:29:46 27° SSW
Cosmos 332 Rocket 4.3 20:23:32 10° NNW 20:28:03 57° W 20:28:03 57° W
Meteor 2-19 Rocket 4.4 20:22:19 10° S 20:28:26 80° W 20:34:38 10° N
OAO 3 Rocket 4.4 20:25:09 10° WSW 20:28:19 36° SW 20:28:19 36° SW
Cosmos 2219 Rocket 4.5 20:31:52 10° NW 20:35:55 21° W 20:39:59 10° SSW
Cosmos 371 Rocket 4.2 20:32:15 10° NNW 20:35:47 45° NW 20:35:47 45° NW
Cosmos 2227 Rocket 4.1 20:43:37 10° WSW 20:48:19 26° WNW 20:53:03 10° N
SL-16 R/B 3.4 20:59:10 10° NNW 21:03:01 39° WNW 21:03:01 39° WNW
ATLAS 2AS CENTAUR R/B 3.6 21:03:23 10° NNW 21:09:17 46° N 21:09:17 46° N
Atlas Centaur 2 4.3 21:10:02 10° WSW 21:13:02 23° SW 21:13:02 23° SW
